STARLINK-11552, 62907

Orbit data source: Space-Track

STARLINK-11552, 62907 is a payload satellite owned by SpaceX/Seattle (US) in LEO that was launched on Sat, 08 Feb 2025 UTC via an FALCON 9 launch vehicle from the Air Force Eastern Test Range (AFETR). Payload-class satellites include a variety of spacecraft equipped with specific instruments for various scientific and technological missions. These include communications satellites like Starlink; space stations such as the ISS; scientific satellites like the Hubble; Earth observation satellites from companies like Planet Labs, Umbra, and HawkEye 360; GPS; miniature CubeSats for education and research; and military/defense satellites.

Loading next visibility...
Identifier
62907, 2025-027A
Orbit
LEO
Country
Flag of USUS
Related business
Manufacturer
SpaceX/Seattle
Mission
Operational Commercial Communications
Bus & Motor
STARLINK V2MD, Unknown motor
Mass
960 kg wet, ~910 kg dry
Launch date (UTC)
2025-02-08 (10 months ago)
Launch vehicle
FALCON 9
Launch site
Air Force Eastern Test Range (AFETR)
Object type
Payload
Rocket body
Debris
Shape & HBR
Box + 2 Pan, 18.1 m
Radar Cross Section
36.964 m², Large (>1 m²)

Expand to show TLE details & history
Last TLE update: 19 hours ago

TLE from 19 hours ago
0 STARLINK-11552
1 62907U 25027A   25347.67924822  .00131481  00000-0  10110-2 0  9994
2 62907  42.9988 146.2234 0002087 270.4674  89.5955 15.70862250 49667
Epoch: 2025-12-13T16:18Z
TLE epoch observation values (Epoch: 2025-12-13T16:18:07.046Z)
Latitude
0.00003°
Longitude
179.09102°
Altitude
356.193 km
Speed
7.697 km/s
True Right ascension
09h 44m 53s
True Declination
0° 00' 00"
Sunlit
Object was in full shadow at epoch
Visualization orbit readout
Latitude
Unknown
Longitude
Unknown
Altitude
Unknown
Speed
Unknown
Apparent Right ascension
Unknown
Apparent Declination
Unknown
Sunlit
N/A
Visualization observer readout
Local Sidereal Time
10:02:01
Azimuth
Unknown
Elevation
Unknown
Doppler factor
Unknown
Orbital elements
Apogee altitude
359.819 km
Perigee altitude
357.007 km
Semi-major axis
6,736.55 km
Eccentricity
0.00021
Inclination
42.9988°
RAAN
146.2234°
Arg. of periapsis
270.4674°
True anomaly
89.61941°
Mean anomaly
89.5955°
Eccentric anomaly
89.60746°
Mean motion
3.92543 °/min
Orbital period
91.71 mins
BSTAR
0.001011
Loading maneuver chart data...
Computing Atmospheric mass density...
Loading historical data...
Loading historical data...
Loading historical data...
Loading historical data...
Loading historical data...
Loading historical data...
Loading historical data...

Documentation

Showing up to 5 results
|